Temp
78 86 87 78 62 67 66 71 82 79 79 87 88 83 81 80 76 66 86 90 88 83 84 82 77 77 78 77 77 77 77 77 77 77 77 77 77 76 76 76 76 76 76 76 76 75 75 75 75
82 84 82 77 63 57 65 76 75 81 85 86 85 82 80 73 77 77 80 88 88 87 86 82 76 77 77 77 77 76 76 76 76 76 77 76 76 76 75 75 75 74 74 74 74 74 74 74 74
79 83 74 68 65 62 66 77 79 83 83 83 80 85 81 72 75 80 86 88 88 87 85 80 76 77 77 76 76 76 76 76 76 76 76 76 75 75 75 74 74 73 73 73 74 73 73 73 72
79 77 74 64 63 71 74 79 84 79 82 86 85 75 78 82 80 80 88 89 88 88 85 76 76 76 76 76 76 76 76 76 75 75 75 75 74 74 73 73 72 72 72 73 73 73 72 72 71
77 74 63 61 65 73 80 79 83 77 78 80 84 73 71 78 79 81 87 88 86 87 84 80 76 76 76 76 75 75 75 75 74 74 74 73 73 72 72 71 71 71 71 71 72 71 71 70 70
67 72 60 58 64 74 79 79 80 79 81 81 80 72 70 75 74 83 86 86 88 86 83 81 74 74 75 75 75 74 74 73 73 73 72 72 71 71 70 70 70 70 70 70 70 70 70 69 69
63 64 59 65 66 70 77 80 77 79 79 78 84 72 68 71 77 84 85 86 87 85 83 78 78 75 72 73 73 73 72 71 71 70 69 68 68 69 69 68 69 69 69 69 69 68 68 68 68
69 66 61 65 66 68 79 77 80 80 76 87 86 71 64 71 80 82 84 84 84 83 80 78 79 79 77 74 70 70 70 69 68 67 67 67 67 68 68 70 66 67 67 67 67 67 67 67 67
70 58 56 62 67 72 80 75 77 83 78 79 80 81 80 77 81 79 79 79 75 73 77 80 80 79 78 75 71 68 67 67 67 67 66 69 77 75 74 63 64 65 66 66 67 67 67 67 67
62 56 61 72 75 72 76 76 74 73 74 74 73 79 76 78 77 75 73 67 69 73 77 80 80 79 78 78 75 75 74 77 78 78 77 77 76 73 73 66 64 65 65 66 67 67 68 70 75
63 57 67 68 68 69 69 73 77 70 71 76 72 72 73 74 75 74 68 68 70 74 78 79 79 79 78 77 76 76 76 76 76 76 77 77 77 76 75 74 73 73 69 73 73 74 74 73 74
57 64 66 67 67 66 66 73 73 73 75 80 81 75 74 73 74 70 67 70 71 75 77 78 79 78 79 78 79 78 77 77 76 75 75 76 75 75 75 74 73 73 73 72 72 73 73 73 74
58 63 65 68 66 66 69 67 70 73 72 71 79 73 74 74 74 69 72 73 74 75 73 72 76 77 77 77 78 78 76 77 75 74 74 75 74 73 74 73 73 73 73 72 71 72 72 72 73
59 63 64 66 66 66 64 67 69 73 71 71 71 70 74 73 70 69 71 71 75 73 68 69 74 77 76 75 75 76 75 73 73 73 72 72 73 72 71 72 72 72 72 72 72 71 71 72 72
59 55 61 63 65 64 67 61 63 73 72 72 66 69 71 68 70 69 71 74 76 73 71 71 72 75 75 74 74 74 73 73 72 72 73 72 72 71 70 70 70 70 71 71 71 71 72 71 71
55 57 51 63 64 66 63 55 69 71 69 69 69 67 68 69 68 71 74 77 76 74 71 70 72 74 75 74 73 74 73 73 72 72 72 71 71 71 71 70 70 70 70 70 69 69 68 68 69
53 47 51 57 65 65 61 57 71 69 66 66 69 68 65 66 69 72 76 76 72 70 67 66 66 69 70 73 73 73 72 72 72 72 72 71 71 71 70 69 69 70 69 68 68 68 67 66 66
43 47 52 53 60 62 59 59 66 66 65 65 62 65 62 63 66 72 74 74 71 69 67 65 65 68 69 69 72 72 71 71 72 72 72 70 71 70 69 69 69 68 68 68 67 66 67 66 65
52 49 47 53 62 58 58 60 64 66 61 60 60 62 62 63 66 69 72 70 67 66 66 63 63 65 67 65 70 70 69 69 69 69 70 70 70 69 68 69 69 69 67 67 67 66 65 65 65
50 48 48 55 59 56 58 58 65 67 62 63 62 61 61 63 66 67 69 67 64 67 67 62 62 61 63 64 69 71 73 71 70 68 68 69 69 68 68 68 67 68 67 67 66 65 63 65 65
49 46 49 49 55 58 56 55 60 66 66 63 63 65 63 63 65 67 67 66 66 66 66 63 62 61 62 63 64 65 67 68 66 67 67 67 68 67 66 67 66 66 66 65 64 64 62 60 64
44 55 51 49 47 40 57 42 55 62 62 62 62 62 63 64 69 71 68 68 67 67 67 64 62 61 62 64 65 63 66 66 68 68 68 67 67 67 65 65 65 65 65 64 64 65 62 62 59
47 52 50 50 46 46 49 42 52 62 60 63 65 65 65 66 70 71 71 71 71 70 67 65 62 62 63 64 63 64 68 70 69 68 66 66 66 66 65 64 64 64 64 64 63 63 63 63 60
54 50 50 49 44 34 46 45 46 56 62 65 69 69 68 69 69 72 72 72 72 71 68 66 64 64 65 63 66 68 68 68 65 65 65 65 66 65 64 63 63 63 63 63 63 63 62 62 61
49 45 33 31 32 34 35 38 49 62 66 67 69 71 70 72 71 71 70 70 70 68 66 66 65 65 66 66 66 67 67 67 66 66 65 65 64 63 63 63 62 63 63 62 62 61 61 60 59
46 45 36 29 31 38 41 38 48 64 68 68 69 74 72 72 73 72 72 71 69 65 65 66 64 65 67 66 65 66 66 65 66 65 65 64 64 64 63 62 62 62 62 62 62 61 60 60 59
45 39 50 41 43 38 44 50 59 62 61 63 65 66 69 72 73 73 74 73 71 68 66 66 66 67 66 65 65 64 64 63 63 63 63 62 62 62 61 61 61 61 61 61 61 60 60 60 60
46 50 39 40 29 31 42 45 45 53 58 62 62 64 66 70 74 74 74 73 72 70 68 67 67 66 65 65 64 63 62 62 62 61 60 60 61 60 60 60 60 60 60 60 60 60 60 59 59
42 41 44 44 44 36 35 42 58 53 59 62 65 66 67 68 68 71 72 72 71 69 67 66 66 65 63 63 62 61 60 60 60 59 60 60 60 59 59 59 59 59 59 59 59 59 58 58 58
51 48 48 38 38 42 40 39 61 59 58 58 59 61 64 64 67 66 67 69 66 66 65 64 64 63 61 62 61 60 59 59 58 58 59 59 58 59 59 59 58 58 58 58 57 57 57 56 56
MSLP
1014.15 1013.16 1012.71 1012.57 1012.19 1009.11 1006.27 1004.92 1003.98 1003.86 1004.23 1004.56 1005.02 1005.71 1006.38 1007.79 1008.48 1010.33 1011.31 1011.43 1012.65 1013.69 1014.56 1015.24 1015.81 1016.06 1016.31 1016.68 1016.91 1017.05 1017.16 1017.33 1017.47 1017.48 1017.65 1017.72 1017.77 1017.89 1017.94 1017.95 1017.91 1017.91 1017.88 1017.81 1017.74 1017.69 1017.64 1017.54 1017.41
1013.57 1012.97 1012.47 1011.02 1009.92 1007.87 1005.49 1004.53 1003.88 1004.09 1004.28 1005.29 1006.00 1006.63 1007.13 1008.84 1010.37 1011.30 1011.73 1012.11 1012.60 1013.55 1014.42 1015.25 1016.05 1016.29 1016.55 1016.86 1017.09 1017.33 1017.47 1017.62 1017.77 1017.83 1017.88 1018.00 1018.09 1018.12 1018.18 1018.21 1018.21 1018.16 1018.09 1018.05 1017.99 1017.90 1017.83 1017.74 1017.61
1013.80 1012.97 1011.51 1010.00 1008.21 1005.90 1004.49 1003.99 1003.87 1004.24 1005.29 1005.66 1006.44 1006.95 1007.72 1009.80 1011.38 1011.64 1011.88 1012.27 1012.98 1013.62 1014.47 1015.74 1016.28 1016.50 1016.78 1017.08 1017.34 1017.60 1017.75 1017.88 1018.01 1018.10 1018.14 1018.25 1018.36 1018.43 1018.43 1018.47 1018.48 1018.42 1018.33 1018.22 1018.15 1018.06 1017.98 1017.88 1017.77
1012.81 1012.49 1011.37 1008.54 1006.33 1005.60 1004.34 1003.62 1003.78 1004.89 1005.76 1005.76 1006.27 1007.79 1009.62 1010.58 1011.28 1012.24 1012.16 1012.46 1013.09 1013.70 1014.57 1016.16 1016.47 1016.76 1017.08 1017.41 1017.62 1017.83 1017.99 1018.10 1018.25 1018.38 1018.45 1018.56 1018.62 1018.68 1018.71 1018.73 1018.75 1018.70 1018.54 1018.46 1018.36 1018.27 1018.22 1018.13 1017.99
1012.90 1011.17 1009.79 1007.86 1006.20 1005.03 1004.25 1004.42 1003.95 1004.87 1005.55 1006.05 1006.44 1008.23 1010.16 1011.65 1012.48 1012.62 1012.31 1012.79 1013.38 1013.88 1015.03 1016.18 1016.65 1017.05 1017.43 1017.72 1017.94 1018.11 1018.22 1018.34 1018.55 1018.66 1018.81 1018.89 1018.98 1019.02 1019.05 1019.04 1018.94 1018.92 1018.79 1018.64 1018.57 1018.50 1018.41 1018.33 1018.20
1012.02 1010.41 1008.44 1006.72 1005.92 1004.91 1004.11 1004.61 1004.74 1004.83 1005.17 1005.94 1006.74 1008.84 1011.00 1012.33 1012.85 1012.36 1012.70 1013.11 1013.56 1014.19 1015.33 1016.21 1017.04 1017.39 1017.81 1018.08 1018.26 1018.45 1018.57 1018.68 1018.86 1019.05 1019.21 1019.31 1019.39 1019.39 1019.40 1019.37 1019.24 1019.17 1019.10 1018.95 1018.82 1018.70 1018.63 1018.55 1018.37
1011.40 1010.07 1008.20 1006.65 1005.70 1004.85 1004.20 1004.91 1004.89 1004.82 1005.18 1005.93 1006.70 1008.62 1011.34 1012.41 1012.72 1012.55 1013.07 1013.47 1013.84 1014.52 1015.23 1016.39 1017.08 1017.76 1018.13 1018.43 1018.64 1018.82 1019.04 1019.13 1019.21 1019.45 1019.58 1019.72 1019.80 1019.76 1019.72 1019.68 1019.54 1019.46 1019.42 1019.23 1019.06 1018.95 1018.80 1018.68 1018.54
1011.50 1010.25 1008.62 1007.02 1005.41 1004.42 1004.31 1005.65 1005.41 1005.27 1005.64 1005.97 1006.90 1008.11 1010.65 1011.81 1012.18 1012.81 1013.31 1013.77 1014.25 1014.81 1015.60 1016.35 1017.02 1017.55 1018.08 1018.61 1019.02 1019.18 1019.43 1019.58 1019.63 1019.75 1019.81 1019.81 1019.72 1019.79 1019.93 1019.69 1019.89 1019.74 1019.63 1019.53 1019.36 1019.19 1019.00 1018.74 1018.58
1012.18 1010.64 1008.53 1007.23 1005.78 1004.88 1004.77 1005.47 1006.23 1005.78 1006.04 1006.99 1007.67 1007.65 1008.94 1011.42 1012.07 1012.81 1013.42 1013.98 1015.00 1015.72 1016.01 1016.25 1016.84 1017.45 1018.03 1018.63 1019.30 1019.46 1019.65 1019.72 1019.76 1019.82 1019.75 1019.57 1019.27 1019.47 1019.57 1020.32 1020.18 1019.99 1019.82 1019.70 1019.49 1019.28 1019.00 1018.47 1018.33
1011.98 1010.52 1008.50 1007.59 1006.76 1006.44 1005.58 1005.84 1006.63 1006.92 1006.83 1007.42 1008.52 1008.86 1010.21 1011.14 1012.05 1012.61 1013.50 1014.70 1015.33 1015.54 1015.92 1016.33 1016.83 1017.38 1017.90 1018.39 1018.89 1019.04 1019.31 1019.17 1019.19 1019.26 1019.31 1019.28 1019.54 1019.87 1019.79 1020.14 1020.13 1019.93 1019.71 1019.57 1019.32 1019.08 1018.70 1018.33 1017.88
1011.64 1010.51 1009.39 1008.82 1008.88 1008.74 1007.90 1006.73 1006.89 1007.15 1006.77 1007.14 1008.07 1009.14 1010.35 1011.33 1012.06 1012.85 1014.15 1014.86 1015.28 1015.46 1015.98 1016.42 1016.84 1017.41 1017.83 1018.28 1018.75 1018.92 1019.10 1019.26 1019.47 1019.53 1019.43 1019.45 1019.45 1019.53 1019.54 1019.54 1019.56 1019.46 1019.37 1019.11 1018.97 1018.63 1018.56 1018.44 1018.16
1011.81 1011.13 1010.51 1009.78 1010.06 1009.78 1009.07 1007.98 1007.15 1007.38 1007.05 1007.03 1007.88 1009.46 1010.04 1011.05 1011.69 1013.02 1014.08 1014.66 1014.93 1015.23 1015.90 1016.42 1016.78 1017.26 1017.56 1018.11 1018.22 1018.56 1018.83 1019.07 1019.28 1019.66 1019.70 1019.57 1019.58 1019.55 1019.52 1019.53 1019.58 1019.49 1019.43 1019.29 1019.17 1018.93 1018.74 1018.51 1018.28
1012.07 1011.30 1011.17 1010.84 1010.75 1010.53 1009.86 1008.92 1007.83 1007.34 1007.68 1007.90 1008.28 1009.86 1010.28 1011.01 1011.78 1013.31 1013.87 1014.50 1014.72 1015.24 1016.30 1016.82 1016.91 1017.34 1017.77 1017.98 1018.27 1018.49 1018.97 1019.02 1019.51 1019.77 1019.90 1019.80 1019.77 1019.78 1019.76 1019.73 1019.77 1019.70 1019.62 1019.48 1019.30 1019.13 1018.94 1018.70 1018.48
1012.87 1011.77 1011.31 1011.15 1010.80 1010.66 1010.10 1008.96 1008.39 1007.76 1008.43 1008.83 1009.43 1010.19 1010.35 1011.27 1012.31 1013.22 1013.63 1014.16 1014.46 1015.51 1016.41 1016.86 1017.04 1017.36 1017.84 1018.14 1018.48 1018.71 1019.05 1019.47 1019.69 1019.84 1020.09 1020.19 1020.11 1020.07 1020.12 1019.89 1019.97 1019.91 1019.84 1019.68 1019.44 1019.30 1019.06 1018.81 1018.72
1013.25 1012.40 1011.43 1011.05 1010.63 1010.38 1010.14 1008.93 1008.09 1008.01 1008.47 1008.79 1009.46 1010.33 1010.68 1011.71 1012.54 1012.96 1013.41 1013.62 1014.25 1015.30 1016.17 1016.69 1017.07 1017.30 1017.71 1018.14 1018.53 1018.86 1019.18 1019.40 1019.66 1019.86 1020.03 1020.17 1020.24 1020.34 1020.31 1020.23 1020.15 1020.18 1020.06 1019.86 1019.60 1019.46 1019.12 1019.00 1018.82
1013.15 1012.33 1011.02 1009.88 1010.17 1010.04 1010.46 1008.31 1007.66 1008.28 1008.78 1008.83 1009.84 1010.25 1010.94 1011.64 1012.32 1012.86 1013.19 1013.36 1014.31 1015.00 1015.95 1016.78 1017.14 1017.34 1017.62 1018.06 1018.54 1018.82 1019.21 1019.39 1019.68 1019.86 1020.02 1020.23 1020.30 1020.40 1020.28 1020.28 1020.26 1020.41 1020.24 1020.12 1019.92 1019.75 1019.52 1019.32 1019.13
1013.05 1011.75 1010.46 1009.53 1009.64 1009.66 1009.83 1008.42 1007.38 1008.54 1009.06 1009.17 1009.58 1010.49 1010.79 1012.07 1012.35 1012.69 1012.93 1013.58 1014.77 1015.57 1016.17 1016.91 1017.42 1017.61 1017.81 1018.06 1018.53 1018.88 1019.22 1019.31 1019.55 1019.77 1019.86 1020.18 1020.32 1020.34 1020.31 1020.35 1020.39 1020.42 1020.31 1020.19 1020.13 1019.91 1019.80 1019.63 1019.44
1013.12 1012.16 1010.98 1009.94 1009.60 1009.57 1009.07 1008.74 1008.37 1008.95 1009.34 1009.62 1010.43 1010.78 1011.31 1011.77 1012.18 1012.63 1012.97 1013.90 1014.97 1015.70 1016.20 1016.90 1017.52 1017.81 1018.02 1018.22 1018.55 1018.80 1019.18 1019.37 1019.51 1019.65 1019.84 1020.17 1020.18 1020.36 1020.46 1020.38 1020.37 1020.50 1020.26 1020.19 1020.23 1020.13 1019.97 1019.80 1019.69
1013.33 1012.60 1011.76 1011.01 1009.75 1009.73 1008.86 1008.49 1008.00 1008.70 1009.63 1010.01 1010.46 1011.02 1011.34 1011.79 1012.38 1012.86 1013.12 1014.03 1014.94 1015.67 1016.18 1016.82 1017.30 1017.82 1018.14 1018.31 1018.32 1018.56 1018.84 1019.23 1019.57 1019.76 1019.98 1020.09 1020.17 1020.38 1020.44 1020.33 1020.30 1020.36 1020.38 1020.42 1020.40 1020.31 1020.05 1019.83 1019.95
1013.62 1012.77 1011.89 1010.92 1010.37 1010.35 1008.86 1008.22 1007.90 1007.85 1009.07 1009.69 1010.02 1010.79 1011.11 1011.66 1012.52 1012.72 1012.98 1013.85 1014.61 1015.12 1015.86 1016.53 1017.14 1017.71 1018.06 1018.12 1018.18 1018.11 1018.41 1018.91 1019.15 1019.69 1019.89 1019.96 1020.12 1020.35 1020.34 1020.32 1020.37 1020.41 1020.44 1020.41 1020.53 1020.53 1020.34 1020.02 1020.22
1013.43 1013.00 1011.93 1011.46 1010.86 1010.28 1009.33 1008.02 1007.65 1007.48 1008.34 1009.25 1009.75 1010.14 1010.75 1011.00 1011.94 1012.02 1012.53 1013.32 1014.23 1014.67 1015.44 1015.96 1016.70 1017.41 1017.94 1018.07 1018.29 1018.37 1018.71 1019.05 1019.30 1019.53 1019.73 1019.91 1020.11 1020.32 1020.49 1020.44 1020.48 1020.46 1020.59 1020.56 1020.68 1020.71 1020.69 1020.56 1020.31
1013.13 1012.66 1012.65 1012.19 1011.62 1010.38 1009.51 1007.85 1007.04 1006.89 1007.16 1008.11 1008.93 1009.64 1010.07 1010.59 1010.75 1011.01 1011.91 1012.70 1013.36 1013.94 1014.75 1015.63 1016.31 1017.00 1017.57 1017.86 1018.18 1018.23 1018.25 1018.33 1018.59 1018.93 1019.39 1019.72 1020.06 1020.19 1020.44 1020.56 1020.53 1020.55 1020.57 1020.63 1020.62 1020.71 1020.91 1020.88 1020.66
1013.58 1013.39 1012.92 1012.53 1012.09 1011.37 1009.91 1009.01 1006.59 1005.96 1005.73 1006.16 1007.18 1008.00 1008.95 1009.47 1009.65 1009.76 1010.43 1011.24 1012.36 1013.18 1014.04 1015.02 1015.90 1016.56 1017.11 1017.54 1017.73 1017.84 1017.85 1017.90 1018.39 1018.94 1019.33 1019.61 1019.88 1020.16 1020.37 1020.51 1020.58 1020.57 1020.57 1020.54 1020.69 1020.74 1020.77 1020.89 1020.96
1014.17 1013.69 1013.08 1012.87 1012.82 1011.79 1010.08 1008.93 1006.46 1005.03 1004.16 1004.59 1005.41 1006.31 1007.28 1008.02 1008.75 1009.21 1009.99 1010.61 1011.61 1012.66 1013.42 1014.47 1015.37 1015.94 1016.54 1017.04 1017.23 1017.35 1017.58 1017.86 1018.40 1018.79 1019.07 1019.35 1019.68 1019.97 1020.31 1020.49 1020.50 1020.54 1020.51 1020.56 1020.56 1020.61 1020.77 1020.88 1020.94
1014.41 1013.60 1013.23 1013.21 1012.52 1011.00 1010.44 1009.45 1005.77 1004.42 1004.06 1004.17 1004.23 1004.86 1005.93 1006.66 1007.44 1008.20 1009.15 1009.94 1010.88 1011.97 1012.81 1013.76 1014.76 1015.22 1015.73 1016.35 1016.68 1017.07 1017.45 1017.70 1018.14 1018.46 1018.84 1019.13 1019.45 1019.75 1020.02 1020.29 1020.35 1020.30 1020.43 1020.51 1020.55 1020.63 1020.74 1020.85 1020.94
1013.88 1013.54 1012.75 1012.15 1011.26 1010.30 1010.26 1007.78 1005.56 1004.65 1004.27 1004.30 1004.17 1003.71 1005.02 1005.75 1006.28 1007.17 1007.99 1009.17 1010.39 1011.43 1012.41 1012.95 1013.97 1014.61 1014.99 1015.81 1016.10 1016.80 1017.31 1017.68 1018.05 1018.42 1018.78 1019.02 1019.29 1019.57 1019.96 1020.15 1020.22 1020.27 1020.38 1020.42 1020.47 1020.59 1020.67 1020.76 1020.97
1013.71 1013.41 1012.91 1012.27 1011.18 1010.35 1008.33 1006.78 1005.44 1004.76 1004.52 1004.48 1004.39 1004.32 1004.40 1004.95 1005.50 1006.33 1007.26 1008.26 1009.36 1010.53 1011.58 1012.26 1013.12 1013.95 1014.75 1015.35 1015.67 1016.58 1017.22 1017.64 1018.03 1018.49 1018.84 1019.11 1019.37 1019.59 1019.86 1020.05 1020.12 1020.20 1020.33 1020.42 1020.46 1020.59 1020.59 1020.64 1020.78
1013.94 1013.65 1012.91 1012.47 1011.26 1009.32 1007.35 1005.99 1004.95 1004.25 1004.06 1004.17 1004.36 1004.37 1004.68 1004.87 1005.01 1005.81 1006.72 1007.66 1008.72 1009.63 1010.66 1012.07 1012.48 1013.29 1014.30 1014.93 1015.41 1016.36 1017.02 1017.56 1018.00 1018.43 1018.76 1019.06 1019.32 1019.67 1019.86 1020.02 1020.13 1020.19 1020.30 1020.46 1020.55 1020.51 1020.54 1020.67 1020.70
1013.58 1013.03 1012.44 1011.90 1010.61 1009.12 1007.28 1005.56 1004.72 1004.67 1004.26 1003.91 1003.91 1004.17 1004.56 1005.13 1005.65 1006.03 1006.60 1007.52 1008.47 1009.55 1010.51 1011.49 1012.27 1012.81 1014.08 1014.65 1015.31 1016.05 1016.75 1017.36 1017.96 1018.35 1018.66 1018.92 1019.21 1019.54 1019.79 1019.98 1020.13 1020.26 1020.43 1020.58 1020.66 1020.68 1020.75 1020.78 1020.76
1011.97 1011.44 1011.23 1010.94 1009.97 1009.28 1008.38 1005.94 1004.87 1004.73 1004.59 1004.79 1005.03 1005.34 1005.58 1005.84 1006.07 1006.60 1007.02 1007.52 1008.60 1009.44 1010.30 1011.13 1011.92 1012.90 1013.85 1014.40 1015.20 1015.71 1016.49 1017.18 1017.76 1018.19 1018.56 1018.85 1019.12 1019.48 1019.75 1020.01 1020.23 1020.43 1020.62 1020.75 1020.80 1020.86 1020.99 1021.04 1021.03
Wind_Speed
13 10 6 3 4 7 16 19 8 7 5 5 11 2 7 11 1 4 14 14 19 18 16 14 13 14 15 14 13 13 13 14 12 12 11 11 11 11 11 10 11 11 11 11 11 11 11 11 11
10 8 5 5 9 14 15 19 13 12 6 8 10 5 6 7 9 12 11 18 20 16 16 15 13 14 15 14 14 14 13 12 12 11 11 10 10 10 10 10 11 11 11 11 11 11 11 11 12
10 9 7 6 11 20 16 20 12 6 10 14 8 4 4 7 11 15 15 19 16 15 17 15 13 14 13 15 14 13 13 12 11 10 10 10 10 10 10 10 10 10 10 10 10 11 11 11 11
6 6 7 14 19 23 25 9 16 12 12 11 10 9 8 4 15 9 18 19 16 15 18 13 13 13 15 14 13 13 12 12 11 10 10 10 10 10 10 11 10 10 10 10 10 10 10 10 10
7 7 12 18 23 20 23 7 8 16 13 12 11 8 10 11 11 15 18 15 16 15 16 14 12 16 14 14 13 12 12 12 11 11 11 10 10 10 10 10 9 9 9 9 9 10 10 10 11
8 10 13 20 24 24 19 7 12 16 14 15 9 14 9 13 15 17 16 15 15 15 15 14 13 14 13 13 12 12 12 12 11 11 11 10 10 10 9 9 9 9 9 9 9 9 10 10 10
13 12 19 20 21 22 17 8 13 14 13 16 13 14 8 12 17 16 15 15 14 15 15 13 14 13 13 12 12 12 11 11 12 11 10 10 9 9 8 10 10 9 9 9 10 9 9 9 10
11 13 22 21 20 22 17 14 12 13 13 14 15 9 9 18 20 17 16 15 15 12 13 13 13 12 11 10 12 12 11 11 11 9 7 6 9 6 8 5 10 9 9 9 9 9 9 8 5
6 8 14 23 21 18 15 14 3 1 13 7 6 3 20 24 22 18 17 14 10 8 11 12 12 11 10 10 9 10 10 9 9 7 4 6 4 5 7 7 7 8 7 7 8 8 8 11 11
9 10 15 13 14 16 11 14 10 6 12 11 9 13 23 25 22 21 18 12 12 13 13 12 11 11 10 8 8 7 6 4 3 4 4 4 5 4 3 3 2 1 2 4 2 4 9 7 7
11 14 11 3 11 10 11 10 10 9 16 13 18 23 25 24 20 19 15 14 14 13 11 12 11 10 10 7 6 4 3 3 3 4 4 4 3 3 2 3 3 4 3 5 6 6 6 8 6
8 9 12 1 4 9 10 11 14 13 9 7 17 22 25 26 22 19 16 18 16 16 14 12 11 9 8 6 5 5 4 3 3 3 3 3 3 3 4 4 4 4 5 6 6 5 7 8 8
8 10 8 11 7 10 11 12 13 15 4 10 19 21 24 22 21 15 17 16 14 15 13 9 9 9 7 6 4 4 5 3 4 3 4 3 4 4 4 4 4 5 5 6 6 6 6 7 7
7 7 11 11 13 11 12 11 7 12 6 7 14 20 21 20 19 15 17 17 17 15 13 9 9 10 9 7 6 5 4 5 3 3 3 4 4 4 4 4 4 5 5 5 5 6 5 5 5
6 10 12 14 16 13 9 14 12 4 8 17 18 18 20 16 18 18 16 19 17 15 15 13 10 10 10 9 7 5 5 4 4 3 3 3 3 3 3 3 4 5 5 7 6 6 5 5 4
8 13 11 13 18 15 4 17 17 8 10 16 21 17 14 19 17 16 17 16 14 13 15 12 8 10 10 8 6 5 5 4 4 3 3 3 3 3 3 3 4 4 4 5 5 5 6 5 4
5 10 10 8 13 15 15 13 10 8 9 10 14 15 15 13 15 17 16 15 14 14 13 12 9 9 6 9 6 6 5 4 4 3 3 3 2 2 3 3 3 5 3 3 5 5 5 5 5
8 10 9 9 10 18 19 16 5 6 8 11 11 13 12 13 17 17 15 14 12 12 11 10 7 10 6 5 6 5 5 3 3 3 3 3 2 0 2 2 3 3 3 4 4 5 5 4 5
8 7 10 16 2 11 23 20 19 8 7 11 11 12 13 14 13 13 13 12 11 10 13 11 10 8 6 4 7 6 5 5 4 3 3 3 2 1 2 2 2 2 3 4 5 4 5 4 6
8 9 12 10 3 7 17 25 20 10 9 14 12 14 12 11 15 16 16 14 13 15 14 11 10 8 4 2 2 1 4 4 4 4 5 4 2 0 2 3 2 3 3 3 4 5 4 3 5
11 11 11 7 4 10 11 21 23 19 11 11 12 13 12 14 18 18 17 16 15 14 16 12 12 11 7 4 3 2 4 2 4 5 4 4 2 1 2 2 2 2 2 2 3 3 4 4 3
10 6 11 10 6 7 11 9 21 23 15 14 15 15 16 18 21 18 19 20 18 15 13 11 11 11 9 9 8 7 6 5 5 5 4 4 3 2 1 1 1 2 2 2 2 2 3 3 4
7 5 8 10 9 9 12 8 18 22 24 19 17 18 20 21 21 20 19 19 17 15 13 13 11 11 10 11 8 6 8 4 3 4 5 4 4 3 2 1 1 2 2 1 2 3 2 3 2
5 7 6 3 4 7 15 12 10 17 25 23 18 18 19 21 21 19 16 15 15 13 13 12 14 14 13 11 11 10 8 6 5 6 5 4 3 3 3 2 2 2 2 2 2 2 3 3 3
8 8 4 5 6 7 2 5 14 11 17 19 22 18 18 20 20 20 19 15 15 15 14 13 14 14 14 13 11 10 8 8 8 6 5 5 4 4 4 3 3 2 2 2 3 3 3 3 3
11 8 3 6 5 8 6 10 12 11 15 5 13 17 18 19 19 20 20 17 17 15 15 16 14 14 14 13 11 9 8 5 5 5 4 4 3 3 3 3 3 3 3 3 3 3 3 2 3
6 8 2 6 3 5 9 13 18 9 9 10 12 8 12 19 18 18 17 17 17 17 17 17 16 14 13 13 10 10 8 8 6 6 5 4 3 3 4 3 3 3 3 3 2 3 3 3 3
7 5 5 4 5 6 8 11 7 7 16 15 13 14 14 13 15 14 15 16 16 15 15 15 15 14 13 12 11 10 10 9 7 7 7 6 5 4 4 4 3 3 2 2 2 3 2 3 2
7 6 7 3 7 5 7 4 2 6 13 12 13 12 10 10 10 11 13 13 13 12 13 14 14 13 12 11 12 11 10 9 8 7 7 7 6 5 5 4 3 3 2 1 2 0 1 2 1
11 16 16 8 8 7 6 9 4 3 4 2 3 1 3 5 9 11 10 11 13 13 13 13 12 13 12 12 12 11 10 9 9 8 8 7 7 5 5 4 3 3 3 2 2 2 2 2 2
Wind_Direction
274 256 276 219 245 230 237 230 214 207 177 123 142 154 166 11 190 63 138 129 139 124 131 145 140 116 127 111 107 101 96 89 83 79 78 77 73 63 56 49 45 39 35 31 28 23 19 18 15
287 262 236 251 229 234 225 241 185 222 129 157 120 138 154 91 73 129 130 130 132 138 150 127 125 121 119 120 111 101 97 92 88 86 82 77 70 65 56 49 45 40 35 28 25 26 25 20 15
252 244 230 218 224 220 231 213 175 148 135 157 136 330 98 87 115 147 135 138 137 139 121 121 127 126 124 115 109 105 101 97 92 88 83 77 66 56 52 45 41 38 32 26 22 22 19 17 12
227 202 257 235 224 222 237 207 200 141 173 181 157 118 91 56 143 132 148 147 141 146 122 130 131 125 115 114 111 108 103 96 91 86 82 74 66 60 55 49 38 30 28 24 21 17 14 8 3
237 232 226 224 229 230 226 141 178 170 172 182 183 128 102 104 111 161 148 143 144 143 122 139 131 120 118 117 113 107 101 96 90 84 79 73 62 55 47 41 39 27 25 26 19 12 5 1 357
215 236 217 226 219 230 224 140 207 193 172 167 182 125 133 115 147 162 146 148 148 137 140 136 116 114 115 115 112 105 100 95 90 83 77 70 65 60 52 44 40 34 26 22 16 10 7 3 2
236 219 234 231 229 223 210 153 211 199 172 161 149 146 121 149 163 147 151 146 146 137 144 132 131 113 102 103 103 101 96 94 89 84 80 77 69 62 61 54 44 33 24 26 25 17 13 6 3
231 256 236 244 219 221 192 178 228 202 191 157 166 163 165 165 163 150 150 150 147 138 131 142 135 135 128 118 100 103 98 92 89 88 96 121 123 115 64 53 41 35 30 24 18 9 0 343 325
241 236 230 225 237 224 202 195 221 277 137 164 171 184 135 157 150 154 156 142 119 151 148 142 142 138 133 128 117 110 113 118 123 130 170 215 58 44 69 59 38 30 22 18 13 1 336 306 256
223 229 230 232 220 265 247 208 186 189 170 170 151 110 139 154 161 162 152 154 163 153 153 151 148 144 144 138 152 134 153 115 97 77 62 60 68 56 42 105 186 192 314 247 273 276 284 296 358
213 245 246 303 9 338 303 257 171 226 196 187 176 145 157 157 166 160 164 164 162 165 155 155 151 155 149 144 150 151 132 126 94 63 39 56 62 32 53 34 28 10 353 12 355 359 12 357 4
252 229 269 346 350 333 313 314 219 225 210 261 162 157 161 167 170 160 171 168 172 163 159 155 157 161 151 139 168 139 139 126 109 81 56 37 34 41 33 31 14 16 5 8 8 357 2 359 4
232 260 242 254 272 295 304 269 255 219 63 333 140 163 171 170 164 167 179 167 178 164 153 166 162 157 151 154 142 130 125 115 113 94 52 29 49 41 29 29 20 21 2 8 360 3 358 2 5
323 286 251 248 249 278 289 288 225 233 134 165 152 175 175 173 168 170 178 175 170 168 166 163 172 160 158 154 148 135 130 127 116 111 92 68 51 38 25 27 26 17 10 356 357 1 355 5 10
299 279 226 233 241 241 314 266 226 203 180 168 163 188 175 170 179 182 182 184 170 172 166 166 167 165 163 154 150 144 143 141 136 113 106 85 63 56 32 25 26 16 5 356 358 3 1 10 4
254 247 260 225 219 222 245 251 218 162 195 191 181 173 180 176 187 185 193 174 174 162 164 158 163 170 163 156 158 148 152 149 139 150 139 120 86 56 39 19 30 6 6 3 356 9 360 7 3
262 270 252 227 206 214 214 243 229 169 199 204 193 184 168 182 189 188 188 177 175 171 158 157 162 169 168 157 155 152 153 159 155 161 161 144 113 56 6 20 19 359 1 8 355 3 5 5 2
259 255 277 266 193 228 223 233 169 188 225 206 211 194 178 178 198 191 187 171 176 169 155 145 153 166 165 149 158 160 164 173 168 174 167 163 152 85 327 346 356 348 340 7 1 2 360 11 356
288 260 261 269 184 235 223 230 237 182 209 232 206 202 188 191 189 208 169 172 163 160 158 158 155 166 170 179 180 173 188 179 180 180 164 177 159 229 290 314 316 339 347 358 355 354 353 17 355
258 273 263 259 262 250 240 226 234 208 223 229 203 202 199 185 196 211 181 178 172 175 172 158 162 162 184 187 209 180 177 192 179 168 184 174 187 322 308 313 322 329 326 349 360 9 351 15 23
230 243 266 255 295 251 266 238 228 233 226 208 230 206 200 188 204 202 185 188 181 178 178 170 168 168 177 172 123 87 86 140 184 194 186 184 201 181 278 307 308 319 316 319 341 10 6 351 11
256 250 253 274 289 250 214 238 225 229 209 214 208 210 201 203 204 190 193 193 189 183 177 171 166 170 179 180 185 183 198 202 201 180 185 173 185 185 185 260 288 298 295 287 313 346 350 353 353
240 319 264 241 260 287 248 246 250 218 225 213 214 208 209 205 207 199 194 190 191 179 175 179 172 174 178 188 192 202 217 214 151 176 182 193 177 189 159 237 270 265 268 285 301 299 293 324 318
313 263 203 210 243 245 240 226 248 238 218 218 219 207 202 203 205 205 197 187 189 182 172 177 183 188 188 188 202 206 210 197 185 193 195 186 182 167 176 210 233 250 253 252 262 263 259 278 319
224 237 176 205 207 242 83 218 245 248 222 232 225 202 202 197 194 195 196 194 189 185 177 177 185 191 189 193 193 200 207 201 203 194 200 182 191 192 183 217 214 228 228 248 252 253 259 250 263
212 225 264 244 214 232 170 241 237 246 246 248 276 210 197 202 196 196 197 188 192 180 182 180 186 190 185 190 185 190 191 189 197 191 190 196 206 186 161 215 228 230 233 240 238 244 243 258 240
207 227 317 301 230 268 217 239 256 247 235 224 229 233 221 200 208 198 199 194 192 186 189 186 183 188 187 187 169 177 179 180 180 177 184 184 187 190 202 214 229 218 230 243 251 252 249 238 251
250 350 207 213 259 250 252 246 251 254 224 220 216 209 221 224 217 207 202 201 196 189 184 192 183 184 183 179 167 175 174 179 174 175 184 184 180 190 200 203 205 199 204 225 234 236 227 265 261
191 223 219 277 247 274 288 286 156 255 252 237 209 205 202 203 220 221 209 206 202 187 185 185 185 173 176 172 170 170 168 173 175 182 179 183 177 183 189 185 179 169 174 181 223 51 24 312 356
268 229 225 230 214 238 287 264 295 287 311 233 297 268 220 228 227 211 217 202 195 189 183 182 176 172 173 171 171 168 164 172 177 182 181 176 178 176 172 167 163 149 136 103 76 71 51 25 21